Regional Weather Roundup
Issued by NWS

Home | Current Version | Previous Version | Graphics & Text | Print | Product List | Glossary On
Versions: 1 2 3 4 5 6 7 8 9 10 11 12 13 14 15 16 17 18 19 20 21 22 23 24 25 26 27 28 29 30 31 32 33 34 35 36 37 38 39 40 41 42 43 44 45 46 47 48 49 50
000
ASUS44 KMEG 111800
RWRTN
TENNESSEE HOURLY STATE WEATHER ROUNDUP
NATIONAL WEATHER SERVICE MEMPHIS TN
1200 PM CST THU FEB 11 2016

TNZ002-004-019-021-049-052-054-088>092-111900-
WEST TENNESSEE

CITY           SKY/WX    TMP DP  RH WIND       PRES   REMARKS
MEMPHIS INTL   MOSUNNY   48  21  34 NE9       30.18S
NWS MEMPHIS      N/A     45 N/A N/A MISG        N/A
JACKSON        SUNNY     46  18  32 NE10      30.20F
DYERSBURG      SUNNY     39  21  48 NE15      30.25F WCI  31
UNION CITY     SUNNY     37  21  52 NE12      30.24F WCI  30
PARIS          SUNNY     36  21  55 E13       30.24F WCI  27
LEXINGTON      SUNNY     39  18  41 NE12      30.19F WCI  32
$$

TNZ008-025-027-028-033-062-065-066-111900-
NORTH MIDDLE TENNESSEE

CITY           SKY/WX    TMP DP  RH WIND       PRES   REMARKS
NASHVILLE      MOSUNNY   38  23  55 NE6       30.25F WCI  33
CLARKSVILLE    SUNNY     35  23  61 NE8       30.27F WCI  29
COOKEVILLE     SUNNY     36  21  55 NE8       30.21S WCI  29
CROSSVILLE     SUNNY     35  20  54 NE7       30.17F WCI  29
$$

TNZ061-075-076-078-094-096-097-111900-
SOUTH MIDDLE TENNESSEE

CITY           SKY/WX    TMP DP  RH WIND       PRES   REMARKS
TULLAHOMA      SUNNY     39  21  48 NE8       30.19S WCI  34
WINCHESTER     SUNNY     43  23  45 N8        30.18F
MCMINNVILLE    SUNNY     36  25  64 NE8       30.21F WCI  29
COLUMBIA       SUNNY     41  27  56 NE9       30.20F
SHELBYVILLE    SUNNY     39  25  56 NE8       30.22S WCI  34
$$

TNZ017-018-042-046-047-111900-
NORTHEAST TENNESSEE

CITY           SKY/WX    TMP DP  RH WIND       PRES   REMARKS
TRI CITIES     MOSUNNY   31  16  54 W9        30.18F WCI  23
$$

TNZ012-013-036-069-073-074-111900-
CENTRAL EAST TENNESSEE

CITY           SKY/WX    TMP DP  RH WIND       PRES   REMARKS
KNOXVILLE      MOSUNNY   38  19  46 E7        30.21F WCI  33
OAK RIDGE      MOSUNNY   38  19  46 VRB3      30.22F
GATLINBURG     CLEAR     37  18  44 NW3       30.20F
$$

TNZ083-085-099-111900-
SOUTHEAST TENNESSEE

CITY           SKY/WX    TMP DP  RH WIND       PRES   REMARKS
CHATTANOOGA    MOSUNNY   44  21  40 N9        30.19F
$$

SKY/WX REPORTED AS FAIR MEANS FEW OR NO CLOUDS BELOW
12 THOUSAND FEET.




USA.gov is the U.S. government's official web portal to all federal, state and local government web resources and services.